NORTHERN NASSAU  -  Coastal Flood Statement Coastal Flood Statement        SOUTHERN NASSAU  -  Coastal Flood Statement Coastal Flood Statement      

Active alerts

Northern Nassau
  Details for Northern Nassau Coastal Flood Statement
Southern Nassau
  Details for Southern Nassau Coastal Flood Statement


WXM80 ListenWXM80 Stop

You find our weather info also at:

UK Metoffice

WeatherCloud

Weather Underground

Northeastern Weather Network

AWEKAS

Citizen Weather Observer Program (CWOP)

HAMweather, WeatherForYou, PWS Weather


Weather Underground History page Text

Daily Summary for March 4, 2016 Units:  English    Metric   Both
« Previous Day
Next Day »
Daily Weekly Monthly Yearly Custom
  High: Low: Average:
Temperature: 35.4 °F 30.0 °F 32.3 °F
Dew Point: 31.2 °F 21.9 °F 26.9 °F
Humidity: 96 % 65 % 81 %
Wind Speed: 14.8 mph 0.0 mph 7 mph
Wind Gust: 19.6 mph - -
Wind:- - ENE
Pressure: 30.19 in 29.98 in -
Precipitation: 0.02 in    
Historical Graphs
 
 
Tabular Data for March 4, 2016
Time Temperature Dew Point Pressure Wind Wind Speed Wind Gust Humidity Rainfall Rate (Hourly)
00:04 32.8 °F 22.7 °F 30.19 in Calm     66 % 0.00 in
00:09 32.8 °F 22.7 °F 30.18 in Calm     66 % 0.00 in
00:14 32.7 °F 22.9 °F 30.18 in Calm     67 % 0.00 in
00:19 32.7 °F 22.9 °F 30.18 in Calm     67 % 0.00 in
00:24 32.6 °F 22.8 °F 30.18 in Calm     67 % 0.00 in
00:29 32.5 °F 22.8 °F 30.18 in Calm     67 % 0.00 in
00:35 32.5 °F 22.8 °F 30.18 in Calm     67 % 0.00 in
00:40 32.5 °F 23.1 °F 30.17 in Calm     68 % 0.00 in
00:45 32.5 °F 23.1 °F 30.17 in Calm     68 % 0.00 in
00:50 32.4 °F 23.0 °F 30.17 in South 0.2 mph 1.2 mph 68 % 0.00 in
00:55 32.4 °F 23.0 °F 30.16 in South 0.8 mph 2.3 mph 68 % 0.00 in
01:00 32.3 °F 23.3 °F 30.16 in Calm     69 % 0.00 in
01:05 32.4 °F 23.4 °F 30.16 in Calm     69 % 0.00 in
01:10 32.3 °F 23.3 °F 30.16 in Calm     69 % 0.00 in
01:20 32.3 °F 22.6 °F 30.16 in South 0.2 mph 1.2 mph 67 % 0.00 in
01:26 32.3 °F 22.6 °F 30.15 in Calm     67 % 0.00 in
01:31 32.4 °F 22.3 °F 30.15 in South 2.0 mph 2.3 mph 66 % 0.00 in
01:36 32.4 °F 21.9 °F 30.16 in South 0.8 mph 2.3 mph 65 % 0.00 in
01:41 32.5 °F 22.0 °F 30.15 in South 1.0 mph 2.3 mph 65 % 0.00 in
01:46 32.6 °F 22.1 °F 30.15 in South 1.2 mph 3.5 mph 65 % 0.00 in
01:51 32.6 °F 22.1 °F 30.15 in SE 0.7 mph 2.3 mph 65 % 0.00 in
01:56 32.6 °F 22.1 °F 30.15 in SE 0.8 mph 2.3 mph 65 % 0.00 in
02:01 32.6 °F 22.1 °F 30.14 in SE 0.4 mph 1.2 mph 65 % 0.00 in
02:06 32.6 °F 22.5 °F 30.14 in Calm   1.2 mph 66 % 0.00 in
02:12 32.6 °F 22.1 °F 30.14 in SE 0.9 mph 1.2 mph 65 % 0.00 in
02:17 32.6 °F 22.5 °F 30.14 in SE 0.3 mph 1.2 mph 66 % 0.00 in
02:22 32.6 °F 22.5 °F 30.14 in SE 1.0 mph 2.3 mph 66 % 0.00 in
02:27 32.6 °F 22.5 °F 30.15 in SE 0.4 mph 2.3 mph 66 % 0.00 in
02:32 32.6 °F 22.5 °F 30.14 in SE 0.1 mph 1.0 mph 66 % 0.00 in
02:37 32.6 °F 22.5 °F 30.14 in SE 0.1 mph 1.2 mph 66 % 0.00 in
02:42 32.7 °F 22.6 °F 30.14 in SSE 1.6 mph 3.0 mph 66 % 0.00 in
02:47 32.8 °F 22.7 °F 30.15 in SSE 2.7 mph 4.0 mph 66 % 0.00 in
02:52 32.8 °F 22.7 °F 30.14 in SSE 0.3 mph 2.3 mph 66 % 0.00 in
02:57 32.8 °F 23.0 °F 30.14 in SSE 0.4 mph 2.3 mph 67 % 0.00 in
03:03 32.8 °F 23.0 °F 30.14 in SSE 0.9 mph 3.0 mph 67 % 0.00 in
03:13 32.8 °F 23.7 °F 30.14 in SE 1.9 mph 4.6 mph 69 % 0.00 in
03:18 32.7 °F 23.6 °F 30.14 in SSE 4.8 mph 6.9 mph 69 % 0.00 in
03:23 32.6 °F 23.6 °F 30.14 in SE 1.8 mph 3.5 mph 69 % 0.00 in
03:28 32.5 °F 23.5 °F 30.14 in SSE 0.6 mph 2.3 mph 69 % 0.00 in
03:33 32.5 °F 23.5 °F 30.14 in ESE 1.6 mph 3.5 mph 69 % 0.00 in
03:38 32.4 °F 23.7 °F 30.14 in ESE 1.6 mph 3.0 mph 70 % 0.00 in
03:43 32.3 °F 23.9 °F 30.14 in East 1.7 mph 3.5 mph 71 % 0.00 in
03:48 32.2 °F 24.2 °F 30.13 in East 0.6 mph 3.5 mph 72 % 0.00 in
03:54 32.0 °F 24.6 °F 30.14 in ESE 1.2 mph 4.6 mph 74 % 0.00 in
03:59 31.9 °F 25.2 °F 30.13 in ESE 1.2 mph 3.5 mph 76 % 0.00 in
04:04 31.7 °F 25.0 °F 30.14 in SE 0.5 mph 3.5 mph 76 % 0.00 in
04:09 31.6 °F 25.2 °F 30.14 in SE 0.2 mph 2.3 mph 77 % 0.00 in
04:14 31.5 °F 25.4 °F 30.13 in SE 0.4 mph 1.2 mph 78 % 0.00 in
04:19 31.3 °F 25.2 °F 30.13 in SSE 0.1 mph 1.2 mph 78 % 0.00 in
04:24 31.2 °F 25.1 °F 30.13 in SSE 0.3 mph 1.2 mph 78 % 0.00 in
04:29 31.1 °F 25.3 °F 30.13 in SSE 1.1 mph 3.5 mph 79 % 0.00 in
04:34 31.1 °F 25.7 °F 30.13 in SSE 1.0 mph 3.0 mph 80 % 0.00 in
04:39 31.0 °F 25.9 °F 30.13 in ESE 1.2 mph 3.5 mph 81 % 0.00 in
04:45 30.8 °F 26.0 °F 30.13 in ESE 2.1 mph 3.5 mph 82 % 0.00 in
04:55 30.5 °F 26.0 °F 30.13 in East 2.4 mph 3.5 mph 83 % 0.00 in
05:00 30.3 °F 26.0 °F 30.13 in East 2.5 mph 5.0 mph 84 % 0.00 in
05:05 30.2 °F 26.2 °F 30.12 in East 2.0 mph 3.5 mph 85 % 0.00 in
05:10 30.1 °F 26.1 °F 30.13 in East 1.1 mph 2.3 mph 85 % 0.00 in
05:15 30.1 °F 26.4 °F 30.13 in East 2.8 mph 6.9 mph 86 % 0.00 in
05:20 30.1 °F 26.4 °F 30.12 in East 6.3 mph 8.1 mph 86 % 0.00 in
05:25 30.1 °F 26.7 °F 30.12 in ENE 4.0 mph 4.6 mph 87 % 0.00 in
05:30 30.1 °F 26.7 °F 30.12 in East 4.3 mph 8.1 mph 87 % 0.00 in
05:36 30.2 °F 27.1 °F 30.12 in East 6.0 mph 6.9 mph 88 % 0.00 in
05:41 30.2 °F 27.1 °F 30.12 in ENE 3.8 mph 5.8 mph 88 % 0.00 in
05:46 30.2 °F 26.8 °F 30.12 in ESE 7.0 mph 8.1 mph 87 % 0.00 in
05:51 30.3 °F 26.9 °F 30.13 in ENE 3.6 mph 6.9 mph 87 % 0.00 in
05:56 30.3 °F 26.9 °F 30.12 in ENE 6.1 mph 8.1 mph 87 % 0.00 in
06:01 30.3 °F 27.2 °F 30.12 in East 5.2 mph 6.9 mph 88 % 0.00 in
06:06 30.4 °F 27.5 °F 30.12 in East 5.1 mph 8.1 mph 89 % 0.00 in
06:11 30.4 °F 27.8 °F 30.12 in East 6.9 mph 9.2 mph 90 % 0.00 in
06:16 30.4 °F 27.8 °F 30.13 in East 9.7 mph 13.8 mph 90 % 0.00 in
06:21 30.3 °F 28.0 °F 30.13 in NNE 6.8 mph 12.7 mph 91 % 0.00 in
06:27 30.1 °F 27.8 °F 30.13 in ENE 8.7 mph 12.7 mph 91 % 0.00 in
06:32 30.0 °F 28.0 °F 30.13 in East 10.9 mph 15.0 mph 92 % 0.00 in
06:37 30.0 °F 28.2 °F 30.13 in NE 8.3 mph 12.7 mph 93 % 0.00 in
06:42 30.0 °F 28.2 °F 30.13 in ENE 9.7 mph 14.0 mph 93 % 0.00 in
06:47 30.0 °F 28.2 °F 30.13 in ENE 8.7 mph 13.8 mph 93 % 0.00 in
06:52 30.0 °F 28.2 °F 30.14 in ENE 10.0 mph 12.7 mph 93 % 0.00 in
06:57 30.1 °F 28.3 °F 30.13 in ENE 9.2 mph 13.8 mph 93 % 0.00 in
07:02 30.2 °F 28.7 °F 30.13 in ENE 8.8 mph 12.0 mph 94 % 0.00 in
07:07 30.2 °F 28.7 °F 30.13 in ENE 9.5 mph 15.0 mph 94 % 0.00 in
07:12 30.2 °F 28.4 °F 30.14 in ENE 9.1 mph 11.5 mph 93 % 0.00 in
07:18 30.2 °F 28.4 °F 30.14 in East 9.6 mph 13.8 mph 93 % 0.00 in
07:23 30.3 °F 28.8 °F 30.14 in NE 11.4 mph 17.3 mph 94 % 0.00 in
07:28 30.4 °F 28.9 °F 30.14 in NE 11.2 mph 15.0 mph 94 % 0.00 in
07:33 30.4 °F 28.6 °F 30.14 in ENE 7.9 mph 12.7 mph 93 % 0.00 in
07:38 30.5 °F 28.7 °F 30.14 in ENE 10.8 mph 13.8 mph 93 % 0.00 in
07:48 30.5 °F 29.0 °F 30.15 in ENE 9.5 mph 12.7 mph 94 % 0.00 in
07:53 30.4 °F 28.9 °F 30.14 in ENE 11.2 mph 16.1 mph 94 % 0.00 in
07:58 30.3 °F 28.8 °F 30.14 in ENE 10.5 mph 17.3 mph 94 % 0.00 in
08:03 30.3 °F 29.0 °F 30.15 in ENE 8.9 mph 13.8 mph 95 % 0.00 in
08:09 30.4 °F 29.1 °F 30.15 in ENE 12.6 mph 16.1 mph 95 % 0.00 in
08:14 30.3 °F 29.0 °F 30.15 in ENE 10.8 mph 17.3 mph 95 % 0.00 in
08:19 30.3 °F 29.0 °F 30.15 in ENE 10.3 mph 16.1 mph 95 % 0.00 in
08:24 30.3 °F 29.0 °F 30.14 in ENE 8.8 mph 12.7 mph 95 % 0.00 in
08:29 30.4 °F 29.1 °F 30.14 in East 9.5 mph 11.5 mph 95 % 0.00 in
08:34 30.3 °F 29.0 °F 30.14 in ENE 9.1 mph 11.5 mph 95 % 0.00 in
08:39 30.3 °F 29.0 °F 30.14 in ENE 10.2 mph 11.5 mph 95 % 0.00 in
08:44 30.2 °F 28.9 °F 30.14 in East 8.5 mph 12.7 mph 95 % 0.00 in
08:49 30.3 °F 29.0 °F 30.14 in NE 9.0 mph 15.0 mph 95 % 0.00 in
08:54 30.3 °F 29.0 °F 30.13 in ENE 8.9 mph 12.7 mph 95 % 0.00 in
09:05 30.3 °F 29.0 °F 30.13 in ENE 13.0 mph 16.1 mph 95 % 0.00 in
09:10 30.3 °F 29.0 °F 30.13 in ENE 10.1 mph 18.4 mph 95 % 0.00 in
09:15 30.2 °F 28.9 °F 30.13 in ENE 10.6 mph 15.0 mph 95 % 0.00 in
09:20 30.2 °F 28.9 °F 30.13 in NE 8.4 mph 11.5 mph 95 % 0.00 in
09:25 30.2 °F 28.9 °F 30.13 in East 8.1 mph 12.7 mph 95 % 0.00 in
09:30 30.1 °F 28.8 °F 30.12 in East 10.2 mph 16.1 mph 95 % 0.00 in
09:35 30.1 °F 28.8 °F 30.12 in ENE 10.0 mph 13.0 mph 95 % 0.00 in
09:40 30.0 °F 28.7 °F 30.12 in ENE 11.1 mph 16.1 mph 95 % 0.00 in
09:45 30.2 °F 28.9 °F 30.12 in ENE 10.6 mph 16.1 mph 95 % 0.00 in
09:50 30.2 °F 29.2 °F 30.11 in NE 10.1 mph 13.0 mph 96 % 0.01 in
09:56 30.1 °F 29.1 °F 30.12 in NE 10.3 mph 15.0 mph 96 % 0.01 in
10:01 30.1 °F 28.8 °F 30.11 in ENE 10.3 mph 12.7 mph 95 % 0.01 in
10:06 30.1 °F 29.1 °F 30.12 in ENE 10.4 mph 15.0 mph 96 % 0.01 in
10:11 30.1 °F 28.8 °F 30.11 in East 9.9 mph 17.3 mph 95 % 0.01 in
10:16 30.1 °F 29.1 °F 30.11 in NE 10.5 mph 13.0 mph 96 % 0.01 in
10:21 30.1 °F 29.1 °F 30.11 in ENE 9.6 mph 15.0 mph 96 % 0.01 in
10:26 30.1 °F 28.8 °F 30.11 in NE 11.3 mph 16.1 mph 95 % 0.01 in
10:31 30.0 °F 28.7 °F 30.11 in ENE 8.4 mph 13.8 mph 95 % 0.01 in
10:36 30.1 °F 28.8 °F 30.11 in ENE 5.2 mph 9.2 mph 95 % 0.01 in
10:41 30.1 °F 28.8 °F 30.11 in ENE 7.5 mph 13.0 mph 95 % 0.01 in
10:46 30.1 °F 28.8 °F 30.10 in NE 7.1 mph 11.5 mph 95 % 0.01 in
10:51 30.1 °F 28.8 °F 30.10 in ENE 9.2 mph 10.4 mph 95 % 0.00 in
10:57 30.1 °F 28.8 °F 30.10 in ENE 9.4 mph 13.8 mph 95 % 0.00 in
11:02 30.0 °F 28.7 °F 30.10 in ENE 10.0 mph 17.3 mph 95 % 0.00 in
11:07 30.0 °F 28.7 °F 30.10 in ENE 10.1 mph 16.0 mph 95 % 0.01 in
11:12 30.0 °F 28.7 °F 30.10 in ENE 9.7 mph 16.1 mph 95 % 0.01 in
11:17 30.1 °F 28.8 °F 30.10 in NNE 8.7 mph 15.0 mph 95 % 0.01 in
11:22 30.1 °F 28.8 °F 30.09 in NE 7.1 mph 10.0 mph 95 % 0.01 in
11:27 30.2 °F 28.9 °F 30.09 in ENE 7.9 mph 12.7 mph 95 % 0.01 in
11:32 30.2 °F 28.9 °F 30.09 in NE 5.5 mph 15.0 mph 95 % 0.01 in
11:37 30.3 °F 29.0 °F 30.09 in ENE 8.6 mph 11.5 mph 95 % 0.01 in
11:42 30.2 °F 28.7 °F 30.09 in NE 10.7 mph 18.0 mph 94 % 0.01 in
11:48 30.2 °F 28.7 °F 30.09 in ENE 9.5 mph 15.0 mph 94 % 0.01 in
11:53 30.3 °F 28.8 °F 30.08 in ENE 7.8 mph 11.5 mph 94 % 0.01 in
11:58 30.3 °F 28.8 °F 30.08 in NE 8.9 mph 15.0 mph 94 % 0.01 in
12:03 30.3 °F 28.8 °F 30.08 in East 11.6 mph 13.8 mph 94 % 0.01 in
12:08 30.3 °F 28.8 °F 30.08 in NNE 7.1 mph 13.8 mph 94 % 0.00 in
12:13 30.4 °F 28.9 °F 30.08 in NNE 6.6 mph 11.5 mph 94 % 0.00 in
12:18 30.3 °F 28.8 °F 30.07 in East 10.2 mph 15.0 mph 94 % 0.00 in
12:23 30.3 °F 28.8 °F 30.07 in NE 8.4 mph 10.4 mph 94 % 0.00 in
12:28 30.4 °F 28.6 °F 30.07 in ENE 11.0 mph 15.0 mph 93 % 0.00 in
12:33 30.5 °F 28.7 °F 30.07 in NE 7.6 mph 12.7 mph 93 % 0.00 in
12:39 30.6 °F 28.8 °F 30.06 in ENE 7.3 mph 15.0 mph 93 % 0.00 in
12:44 30.6 °F 28.8 °F 30.06 in NE 8.0 mph 11.5 mph 93 % 0.00 in
12:49 30.7 °F 28.9 °F 30.06 in ENE 10.1 mph 16.1 mph 93 % 0.00 in
12:59 31.0 °F 28.9 °F 30.05 in NE 5.4 mph 11.5 mph 92 % 0.00 in
13:04 31.2 °F 29.1 °F 30.04 in NE 10.3 mph 16.1 mph 92 % 0.00 in
13:09 31.2 °F 29.1 °F 30.04 in ENE 9.4 mph 13.8 mph 92 % 0.00 in
13:14 31.4 °F 29.3 °F 30.04 in NE 8.5 mph 13.0 mph 92 % 0.00 in
13:19 31.5 °F 29.2 °F 30.04 in NE 10.7 mph 15.0 mph 91 % 0.00 in
13:24 31.6 °F 29.3 °F 30.04 in ENE 8.5 mph 11.0 mph 91 % 0.00 in
13:30 31.6 °F 29.3 °F 30.04 in ESE 10.9 mph 13.0 mph 91 % 0.00 in
13:35 31.9 °F 29.6 °F 30.03 in ENE 8.2 mph 12.0 mph 91 % 0.00 in
13:40 31.8 °F 29.2 °F 30.03 in ENE 11.9 mph 15.0 mph 90 % 0.00 in
13:45 31.9 °F 29.3 °F 30.03 in ENE 10.6 mph 16.1 mph 90 % 0.00 in
13:50 32.1 °F 29.5 °F 30.02 in ENE 8.3 mph 12.7 mph 90 % 0.00 in
13:55 32.4 °F 29.8 °F 30.02 in ENE 5.7 mph 9.0 mph 90 % 0.00 in
14:00 32.6 °F 30.0 °F 30.02 in East 10.0 mph 12.0 mph 90 % 0.00 in
14:05 32.8 °F 29.9 °F 30.02 in ENE 5.7 mph 10.4 mph 89 % 0.00 in
14:10 33.2 °F 30.6 °F 30.02 in NE 6.5 mph 11.5 mph 90 % 0.00 in
14:15 33.4 °F 30.5 °F 30.02 in NNE 5.7 mph 9.2 mph 89 % 0.00 in
14:21 33.6 °F 31.0 °F 30.01 in NE 7.0 mph 10.4 mph 90 % 0.00 in
14:26 33.7 °F 30.5 °F 30.01 in ENE 7.3 mph 11.5 mph 88 % 0.00 in
14:31 33.8 °F 30.9 °F 30.01 in NE 5.7 mph 10.4 mph 89 % 0.00 in
14:36 33.9 °F 31.0 °F 30.01 in NE 6.2 mph 10.4 mph 89 % 0.00 in
14:41 34.1 °F 31.2 °F 30.00 in NE 7.0 mph 13.0 mph 89 % 0.00 in
14:46 34.1 °F 30.9 °F 30.00 in NNE 6.9 mph 10.4 mph 88 % 0.00 in
14:51 34.2 °F 31.0 °F 30.00 in ENE 5.9 mph 9.2 mph 88 % 0.00 in
14:56 34.3 °F 31.1 °F 30.00 in NNE 7.1 mph 11.5 mph 88 % 0.00 in
15:01 34.3 °F 30.5 °F 30.00 in ENE 6.6 mph 11.5 mph 86 % 0.00 in
15:07 34.4 °F 30.6 °F 30.00 in NNE 5.4 mph 9.2 mph 86 % 0.00 in
15:12 34.4 °F 30.4 °F 30.00 in North 5.9 mph 12.7 mph 85 % 0.00 in
15:17 34.5 °F 29.9 °F 30.00 in North 8.5 mph 13.8 mph 83 % 0.00 in
15:22 34.6 °F 29.7 °F 30.00 in NNE 8.4 mph 13.0 mph 82 % 0.00 in
15:27 34.7 °F 29.8 °F 30.00 in NE 5.5 mph 8.1 mph 82 % 0.00 in
15:32 34.7 °F 29.8 °F 29.99 in NNE 6.9 mph 12.7 mph 82 % 0.00 in
15:37 34.7 °F 29.8 °F 29.99 in North 10.1 mph 12.7 mph 82 % 0.00 in
15:42 34.8 °F 29.6 °F 29.99 in NNE 7.0 mph 10.4 mph 81 % 0.00 in
15:47 34.9 °F 29.4 °F 29.99 in NNE 8.1 mph 11.5 mph 80 % 0.00 in
15:52 34.9 °F 29.0 °F 29.99 in NE 6.8 mph 11.5 mph 79 % 0.00 in
15:58 35.0 °F 29.8 °F 29.98 in NE 5.9 mph 13.0 mph 81 % 0.00 in
16:03 35.1 °F 29.6 °F 29.98 in NNE 8.1 mph 10.4 mph 80 % 0.00 in
16:08 35.1 °F 29.2 °F 29.98 in ENE 5.7 mph 8.1 mph 79 % 0.00 in
16:13 35.2 °F 29.3 °F 29.99 in NNE 5.9 mph 12.7 mph 79 % 0.00 in
16:18 35.3 °F 29.4 °F 29.98 in NE 8.0 mph 11.5 mph 79 % 0.00 in
16:23 35.3 °F 29.4 °F 29.98 in NNE 8.9 mph 13.8 mph 79 % 0.00 in
16:28 35.4 °F 29.5 °F 29.98 in NE 5.7 mph 11.5 mph 79 % 0.00 in
16:33 35.4 °F 28.9 °F 29.98 in NNE 9.4 mph 17.3 mph 77 % 0.00 in
16:38 35.3 °F 28.8 °F 29.98 in NE 9.0 mph 13.8 mph 77 % 0.00 in
16:43 35.3 °F 28.8 °F 29.98 in NE 9.0 mph 11.5 mph 77 % 0.00 in
16:49 35.3 °F 28.5 °F 29.98 in NNE 8.0 mph 12.7 mph 76 % 0.00 in
16:54 35.3 °F 28.2 °F 29.98 in NNE 9.5 mph 18.4 mph 75 % 0.00 in
16:59 35.2 °F 28.1 °F 29.98 in NNE 7.1 mph 12.7 mph 75 % 0.00 in
17:04 35.2 °F 28.4 °F 29.98 in NE 7.2 mph 11.5 mph 76 % 0.00 in
17:09 35.2 °F 28.1 °F 29.98 in NNE 7.4 mph 11.5 mph 75 % 0.00 in
17:14 35.3 °F 27.8 °F 29.98 in NNE 10.2 mph 12.7 mph 74 % 0.00 in
17:20 35.3 °F 27.8 °F 29.98 in NNE 11.5 mph 17.0 mph 74 % 0.00 in
17:25 35.3 °F 27.5 °F 29.98 in NE 10.5 mph 13.8 mph 73 % 0.00 in
17:30 35.3 °F 27.8 °F 29.99 in NE 8.2 mph 17.3 mph 74 % 0.00 in
17:35 35.3 °F 27.5 °F 29.99 in NNE 11.7 mph 16.1 mph 73 % 0.00 in
17:40 35.3 °F 27.5 °F 29.99 in North 10.7 mph 16.1 mph 73 % 0.00 in
17:45 35.3 °F 27.5 °F 29.98 in North 12.4 mph 19.6 mph 73 % 0.00 in
17:50 35.2 °F 27.4 °F 29.98 in North 10.4 mph 17.3 mph 73 % 0.00 in
17:55 35.2 °F 27.1 °F 29.98 in NE 11.5 mph 18.0 mph 72 % 0.00 in
18:00 35.2 °F 27.1 °F 29.98 in NNE 11.9 mph 17.0 mph 72 % 0.00 in
18:05 35.1 °F 27.0 °F 29.99 in NNE 11.4 mph 15.0 mph 72 % 0.00 in
18:11 35.0 °F 26.9 °F 29.99 in NNE 11.2 mph 17.3 mph 72 % 0.00 in
18:16 35.0 °F 27.2 °F 29.99 in NE 9.9 mph 16.1 mph 73 % 0.00 in
18:21 34.9 °F 27.1 °F 29.99 in NNE 8.6 mph 15.0 mph 73 % 0.00 in
18:26 34.9 °F 26.8 °F 29.99 in North 14.8 mph 17.3 mph 72 % 0.00 in
18:31 34.8 °F 26.4 °F 30.00 in NNE 11.7 mph 19.6 mph 71 % 0.00 in
18:36 34.9 °F 26.4 °F 30.00 in North 10.1 mph 12.7 mph 71 % 0.00 in
18:41 34.9 °F 26.1 °F 30.00 in NNE 10.4 mph 16.1 mph 70 % 0.00 in
18:46 34.8 °F 26.7 °F 30.00 in North 11.7 mph 16.0 mph 72 % 0.00 in
18:51 34.7 °F 26.3 °F 30.00 in NE 12.1 mph 18.4 mph 71 % 0.00 in
18:56 34.6 °F 26.2 °F 30.01 in NE 12.4 mph 15.0 mph 71 % 0.00 in
19:02 34.6 °F 26.2 °F 30.01 in North 11.7 mph 17.3 mph 71 % 0.00 in
19:07 34.5 °F 26.4 °F 30.01 in NNE 10.9 mph 16.1 mph 72 % 0.00 in
19:12 34.4 °F 26.3 °F 30.01 in NNE 8.2 mph 9.2 mph 72 % 0.00 in
19:17 34.3 °F 26.2 °F 30.00 in NNE 11.5 mph 19.6 mph 72 % 0.00 in
19:22 34.3 °F 26.2 °F 30.00 in NNE 11.4 mph 16.1 mph 72 % 0.00 in
19:27 34.2 °F 26.1 °F 30.00 in NNE 7.6 mph 12.7 mph 72 % 0.00 in
19:32 34.2 °F 26.1 °F 30.00 in NE 7.4 mph 11.5 mph 72 % 0.00 in
19:37 34.1 °F 25.7 °F 30.00 in North 7.9 mph 16.1 mph 71 % 0.00 in
19:42 34.0 °F 25.6 °F 30.01 in NE 10.6 mph 12.7 mph 71 % 0.00 in
19:47 34.0 °F 25.6 °F 30.01 in NE 10.2 mph 17.3 mph 71 % 0.00 in
19:53 34.0 °F 25.6 °F 30.01 in NNE 12.5 mph 15.0 mph 71 % 0.00 in
19:58 34.0 °F 25.2 °F 30.01 in NNE 10.2 mph 17.3 mph 70 % 0.00 in
20:03 33.9 °F 25.5 °F 30.01 in North 9.3 mph 11.5 mph 71 % 0.00 in
20:08 33.9 °F 25.1 °F 30.00 in North 11.4 mph 17.3 mph 70 % 0.00 in
20:13 33.9 °F 25.5 °F 30.00 in NE 13.6 mph 19.6 mph 71 % 0.00 in
20:18 33.9 °F 25.1 °F 30.00 in NNW 10.4 mph 16.1 mph 70 % 0.00 in
20:23 33.8 °F 25.0 °F 30.01 in NE 13.4 mph 19.6 mph 70 % 0.00 in
20:28 33.8 °F 25.0 °F 30.01 in NE 10.2 mph 13.8 mph 70 % 0.00 in
20:33 33.7 °F 25.0 °F 30.01 in NNE 9.4 mph 17.3 mph 70 % 0.00 in
20:38 33.7 °F 25.0 °F 30.01 in NNE 9.1 mph 15.0 mph 70 % 0.00 in
20:44 33.6 °F 25.2 °F 30.01 in NNE 10.1 mph 15.0 mph 71 % 0.00 in
20:49 33.5 °F 25.4 °F 30.01 in NNE 9.1 mph 12.7 mph 72 % 0.00 in
20:54 33.5 °F 25.1 °F 30.02 in NNE 8.8 mph 11.5 mph 71 % 0.00 in
20:59 33.4 °F 25.0 °F 30.02 in North 7.7 mph 12.7 mph 71 % 0.00 in
21:04 33.4 °F 25.3 °F 30.01 in NNE 7.2 mph 11.5 mph 72 % 0.00 in
21:09 33.3 °F 25.2 °F 30.02 in North 6.4 mph 12.7 mph 72 % 0.00 in
21:14 33.2 °F 25.1 °F 30.02 in North 6.9 mph 11.0 mph 72 % 0.00 in
21:19 33.2 °F 25.1 °F 30.02 in North 7.2 mph 14.0 mph 72 % 0.00 in
21:24 33.2 °F 25.1 °F 30.02 in NNE 6.2 mph 10.0 mph 72 % 0.00 in
21:30 33.1 °F 25.1 °F 30.02 in North 6.0 mph 11.5 mph 72 % 0.00 in
21:35 33.1 °F 25.1 °F 30.02 in NNW 7.6 mph 12.7 mph 72 % 0.00 in
21:40 33.1 °F 25.1 °F 30.02 in NNE 8.2 mph 10.4 mph 72 % 0.00 in
21:45 33.1 °F 25.1 °F 30.02 in NNW 8.6 mph 13.8 mph 72 % 0.00 in
21:50 33.1 °F 24.7 °F 30.03 in North 9.8 mph 17.3 mph 71 % 0.00 in
21:55 33.1 °F 25.1 °F 30.03 in North 5.8 mph 11.5 mph 72 % 0.00 in
22:00 33.0 °F 25.3 °F 30.03 in North 7.2 mph 12.0 mph 73 % 0.00 in
22:05 33.0 °F 25.0 °F 30.03 in North 8.3 mph 11.5 mph 72 % 0.00 in
22:10 33.0 °F 25.0 °F 30.04 in North 10.5 mph 15.0 mph 72 % 0.00 in
22:15 33.0 °F 25.0 °F 30.04 in NNE 8.4 mph 12.0 mph 72 % 0.00 in
22:21 32.9 °F 24.5 °F 30.04 in North 6.3 mph 12.7 mph 71 % 0.00 in
22:26 32.9 °F 24.9 °F 30.04 in North 6.6 mph 13.0 mph 72 % 0.00 in
22:31 32.9 °F 25.2 °F 30.05 in NNE 10.0 mph 15.0 mph 73 % 0.00 in
22:36 33.0 °F 25.3 °F 30.05 in North 7.3 mph 12.7 mph 73 % 0.00 in
22:41 32.9 °F 24.9 °F 30.05 in NNE 7.8 mph 11.5 mph 72 % 0.00 in
22:46 32.9 °F 24.9 °F 30.05 in North 7.8 mph 11.5 mph 72 % 0.00 in
22:51 32.9 °F 24.9 °F 30.05 in NNE 7.1 mph 11.5 mph 72 % 0.00 in
22:56 32.8 °F 24.8 °F 30.05 in NNE 8.5 mph 15.0 mph 72 % 0.00 in
23:01 32.7 °F 25.0 °F 30.05 in NNE 7.7 mph 11.0 mph 73 % 0.00 in
23:06 32.8 °F 25.1 °F 30.05 in NNE 7.6 mph 10.4 mph 73 % 0.00 in
23:12 32.8 °F 25.1 °F 30.05 in NE 7.3 mph 11.5 mph 73 % 0.00 in
23:17 32.8 °F 25.1 °F 30.05 in NNE 7.2 mph 11.0 mph 73 % 0.00 in
23:22 32.8 °F 25.1 °F 30.05 in NNE 6.9 mph 12.7 mph 73 % 0.00 in
23:27 32.8 °F 25.1 °F 30.06 in North 8.8 mph 11.5 mph 73 % 0.00 in
23:32 32.9 °F 24.9 °F 30.06 in NE 7.6 mph 13.8 mph 72 % 0.00 in
23:37 32.9 °F 25.2 °F 30.06 in North 6.1 mph 10.4 mph 73 % 0.00 in
23:42 33.0 °F 25.3 °F 30.06 in NNE 6.2 mph 12.0 mph 73 % 0.00 in
23:47 32.9 °F 24.9 °F 30.06 in NNE 6.9 mph 11.5 mph 72 % 0.00 in
23:52 32.9 °F 25.2 °F 30.06 in NNE 7.0 mph 11.5 mph 73 % 0.00 in
23:57 32.8 °F 24.8 °F 30.06 in NE 9.4 mph 13.8 mph 72 % 0.00 in
Crab Meadow Weather
Compliments of Weather Underground - 3 mb

Script developed by  Jim McMurry - jmcmurry@mwt.net Adapted for the template by  Wim van der Kuil - Leuven-Template.eu

Weather Terms: Advisory - An advisory is issued when a hazardous weather or hydrologic event is occurring, imminent or likely. Advisories are for less serious conditions than warnings, that cause significant inconvenience and if caution is not exercised, could lead to situations that may threaten life or property.